SCP
0 0 0 0 0 0 0 0 0 0 0 0 0 0 0 0 0 0 0 0 0 0 0 0 0 0 0 0 0 0 0 0 0 0 0 0 0 0 0 0 0 0 0 0 0 0 0 0 0 0 0 0 0 0
0 0 0 0 0 0 0 0 0 0 0 0 0 0 0 0 0 0 0 0 0 0 0 0 -0 0 0 0 0 0 0 0 0 0 0 0 0 0 0 0 0 0 0 0 0 0 0 -0 -0 0 0 0 0 0
0 0 0 0 0 0 0 0 0 0 0 0 0 0 0 0 0 0 0 0 0 0 0 0 0 0 0 0 0 0 0 0 0 0 0 0 0 0 0 0 0 0 0 0 0 0 0 0 0 0 0 0 0 0
0 0 0 0 0 0 0 0 0 0 0 0 0 0 0 0 0 0 0 0 0 0 0 0 0 0 0 0 0 0 0 0 0 0 0 0 0 0 0 0 0 0 0 0 0 0 0 0 0 0 0 0 0 0
0 0 0 0 0 0 0 0 0 0 0 0 0 0 0 0 0 0 0 0 0 0 0 0 0 0 0 0 0 0 0 0 0 0 0 0 0 0 0 0 0 0 0 0 0 0 0 0 0 0 0 0 0 0
0 0 0 0 0 0 0 0 0 0 0 0 0 0 0 0 0 0 0 0 0 0 0 0 0 0 0 0 0 0 0 0 0 0 0 0 0 0 0 0 0 0 0 0 0 0 0 0 0 0 0 0 0 0
0 0 0 0 0 0 0 0 0 0 0 0 0 0 0 0 0 0 0 0 0 0 0 0 0 0 0 0 0 0 0 0 0 0 0 0 0 0 0 0 0 0 0 0 0 0 0 0 0 0 0 0 0 0
0 0 0 0 0 0 0 0 0 0 0 0 0 0 0 0 0 0 0 0 0 0 0 0 0 0 0 0 0 0 0 0 0 0 0 0 0 0 0 0 0 0 0 0 0 0 0 0 0 0 0 0 0 0
0 0 0 0 0 0 0 0 0 0 0 0 0 0 0 0 0 0 0 0 0 0 0 0 0 0 0 -0 0 0 0 0 0 0 0 0 0 0 0 0 0 0 0 0 0 0 0 0 0 0 0 0 0 0
0 0 0 0 0 0 0 0 0 0 0 0 0 0 0 0 0 0 0 0 0 0 0 0 0 0 0 0 0 0 0 0 0 0 0 0 0 0 0 0 0 0 0 0 0 0 0 0 0 0 0 0 0 0
0 0 0 0 0 0 0 0 0 0 0 0 0 0 0 0 0 0 0 0 0 0 0 0 0 0 0 0 0 0 0 0 0 0 0 0 0 0 0 0 0 0 0 0 0 0 0 0 0 0 0 0 0 0
0 0 0 0 0 0 0 0 0 0 0 0 0 0 0 0 0 0 0 0 0 0 0 0 0 0 0 0 0 0 0 0 0 0 0 0 0 0 0 0 0 0 0 -0 -0 -0 -0 0 0 0 0 0 0 -0
0 0 0 0 0 0 0 0 0 0 0 0 0 0 0 0 0 0 0 0 0 0 0 0 0 0 0 0 0 0 0 0 0 0 0 0 0 0 -0 0 0 0 0 -0 -0 -0 0 0 0 0 0 0 -0 0
0 0 0 0 0 0 0 0 0 0 0 0 0 0 0 0 0 0 0 0 0 0 0 0 0 0 0 0 0 0 0 0 0 0 0 0 0 0 0 0 0 0 0 -0 -0 -0 -0 0 0 0 0 -0 0 0
0 0 0 0 0 0 0 0 0 0 0 0 0 0 0 0 0 0 0 0 0 0 0 0 0 0 0 0 0 0 0 0 0 0 0 0 0 0 0 0 0 0 0 -0 0 0 -0 0 0 0 0 -0 0 0
0 0 0 0 0 0 0 0 0 0 0 0 0 0 0 0 0 0 0 0 0 0 0 0 0 0 0 0 0 0 0 0 0 0 0 0 0 0 0 0 0 0 -0 -0 0 -0 -0 0 0 0 0 0 0 0
0 0 0 0 0 0 0 0 0 0 0 0 0 0 0 0 0 0 0 0 0 0 0 0 0 0 0 0 0 0 0 0 0 0 0 0 0 0 0 0 0 -0 -0 0 0 -0 -0 0 0 0 -0 0 0 0
0 0 0 0 0 0 0 0 0 0 0 0 0 0 0 0 0 0 0 0 0 0 0 0 0 0 0 0 0 0 0 0 0 0 0 0 0 0 0 0 -0 -0 0 0 0 -0 -0 0 0 -0 0 0 0 0
0 0 0 0 0 0 0 0 0 0 0 0 0 0 0 0 0 0 0 0 0 0 0 0 0 0 0 0 0 0 0 0 0 0 0 0 0 0 0 0 -0 0 0 0 0 0 -0 0 0 0 0 0 0 0
0 0 0 0 0 0 0 0 0 0 0 0 0 0 0 0 0 0 0 0 0 0 0 0 0 0 0 0 0 0 0 0 0 0 0 0 0 0 0 0 0 0 0 0 0 -0 -0 0 0 -0 0 0 0 0
0 0 0 0 0 0 0 0 0 0 0 0 0 0 0 0 0 0 0 0 0 0 0 0 0 0 0 0 0 0 0 -0 0 0 0 0 0 0 0 0 0 0 0 0 0 0 -0 -0 0 0 0 0 0 0
0 0 0 0 0 0 0 0 0 0 0 0 0 0 0 0 0 0 0 0 0 0 0 0 0 0 0 0 0 0 0 0 0 0 0 0 -0 -0 -0 -0 0 -0 0 0 0 0 0 -0 0 -0 0 0 0 0
0 0 0 0 0 0 0 0 0 0 0 0 -0 0 0 0 0 0 0 0 0 0 0 0 0 0 0 -0 0 0 0 0 0 0 -0 0 0 0 0 -0 0 0 0 0 0 0 0 -0 -0 -0 0 0 0 0
0 0 0 0 0 0 0 0 0 0 0 -0 0 -0 0 0 0 0 0 0 0 0 0 0 0 0 0 0 0 0 0 0 0 0 0 0 0 0 0 0 -0 0 0 0 0 0 0 -0 -0 -0 0 0 0 0
0 0 0 -0 -0 -0 -0 -0 -0 -0 -0 -0 -0 -0 0 0 0 0 0 0 0 0 0 0 0 0 0 0 0 0 0 0 0 0 0 0 0 0 0 0 0 0 0 0 0 0 0 -0 -0 0 0 0 0 0
0 0 -0 -0 0 -0 -0 -0 -0 -0 -0 -0 0 0 0 0 0 0 0 0 0 0 0 0 0 0 0 0 0 0 0 0 0 0 0 0 0 0 0 0 0 0 0 0 0 0 0 0 -0 -0 0 0 0 0
0 0 0 -0 -0 -0 -0 -0 0 0 0 0 0 0 0 0 0 0 0 0 0 0 0 0 0 0 0 0 0 0 0 0 0 0 0 0 0 0 0 0 0 0 0 0 0 0 0 0 -0 -0 0 0 0 0
0 0 -0 -0 -0 -0 -0 0 -0 -0 0 0 0 0 0 0 0 0 0 0 0 0 0 0 0 0 0 0 0 0 0 0 0 0 0 0 0 0 0 0 0 0 0 0 0 0 0 0 0 -0 0 0 0 0
0 0 -0 0 0 -0 0 0 -0 0 0 0 0 0 -0 0 0 0 0 0 0 0 0 0 0 0 0 0 0 0 0 0 0 0 0 0 -0 0 0 0 0 0 0 0 0 0 0 0 0 0 0 0 0 0
-0 -0 0 0 0 0 0 0 -0 0 0 0 0 0 0 0 0 0 0 0 0 0 0 0 0 0 0 0 0 0 0 0 0 0 0 0 0 0 0 0 0 0 0 0 0 0 0 0 0 0 0 0 0 0
-0 0 0 0 -0 0 0 0 0 0 0 0 0 0 0 0 0 0 0 0 0 0 0 0 0 0 0 0 0 0 0 0 0 0 0 0 0 0 0 0 0 0 0 0 0 0 0 0 0 0 0 0 0 0
0 0 -0 0 0 0 0 0 0 0 0 0 0 0 0 0 0 0 0 0 0 0 0 0 0 0 0 0 0 0 0 0 0 0 0 0 0 0 0 0 0 0 0 0 0 0 0 0 0 0 0 0 0 0
-0 0 0 0 0 0 0 0 0 0 0 0 0 0 0 0 0 0 0 0 0 0 0 0 0 0 0 0 0 0 0 0 0 0 0 0 0 0 0 0 0 0 0 0 0 0 0 0 0 0 0 0 0 0
Wind_Speed_500mb
44 45 44 47 48 45 43 41 39 37 33 30 30 31 30 25 24 17 9 6 10 9 22 15 14 14 16 17 5 15 10 10 7 3 5 6 3 6 7 4 10 3 6 2 5 6 7 11 19 9 2 22 32 34
36 36 37 42 44 39 38 39 38 36 32 29 30 31 30 27 25 18 7 4 13 15 21 22 13 14 9 7 8 8 10 6 7 4 6 7 5 7 3 3 11 7 3 3 7 6 19 27 26 34 29 36 36 33
21 23 28 32 33 27 32 35 37 34 30 30 32 33 31 29 26 23 16 3 10 20 28 21 13 19 13 7 14 6 4 8 4 7 7 3 3 3 4 4 7 5 8 5 8 6 12 29 34 32 32 29 26 24
15 20 23 24 23 23 23 29 30 27 26 31 35 35 32 31 27 27 19 8 3 10 8 2 6 9 10 11 10 17 25 12 14 14 7 3 2 3 3 5 1 10 6 8 14 22 36 30 27 21 19 14 14 22
15 18 19 18 17 17 17 21 16 20 26 33 36 37 34 27 24 25 22 12 2 4 10 20 19 16 21 6 7 11 11 15 13 10 6 6 2 8 11 5 1 7 2 6 6 11 27 26 23 17 14 17 21 18
11 15 17 16 16 16 13 12 8 14 22 28 33 38 32 25 24 21 8 20 16 5 7 6 9 16 25 19 13 14 13 14 13 8 8 5 6 3 2 4 18 28 22 18 13 17 25 24 17 7 11 17 15 14
11 17 18 15 12 14 10 8 6 16 20 24 31 35 31 31 28 17 6 11 22 15 5 9 11 10 22 22 11 18 18 18 15 10 14 18 8 6 1 3 32 29 23 22 17 15 25 16 18 9 13 17 8 11
8 14 19 13 11 10 4 8 12 23 27 30 33 31 30 26 27 16 9 15 15 10 5 6 8 11 19 14 16 21 16 12 10 16 18 6 12 5 3 32 32 28 23 19 17 14 17 14 10 11 8 6 9 9
7 9 16 16 7 6 6 12 21 29 31 34 34 26 28 18 9 17 18 9 1 3 2 6 5 3 10 14 14 12 10 5 9 9 17 11 4 6 10 42 33 29 20 24 15 11 20 11 14 10 9 8 6 6
7 8 11 17 6 6 12 30 26 35 33 34 46 15 8 26 25 23 8 6 6 3 6 10 11 4 10 19 11 10 5 5 4 9 17 6 7 24 25 27 28 26 22 19 24 22 17 11 4 4 11 4 5 9
8 6 5 11 6 6 14 38 38 39 38 33 8 8 37 36 13 7 6 6 8 7 13 15 24 12 7 11 7 4 5 3 4 8 9 4 5 20 38 35 33 29 26 29 26 17 10 8 4 5 7 9 12 17
13 5 1 6 6 7 12 32 44 45 28 19 12 30 21 8 5 6 7 10 8 7 15 14 24 32 7 2 6 3 3 4 7 4 0 3 2 42 46 43 34 31 29 27 14 8 10 10 10 11 12 13 19 21
15 9 4 5 6 7 11 14 20 18 39 35 11 9 7 5 4 9 13 7 6 11 11 10 18 7 4 6 4 4 5 8 2 4 6 5 31 48 43 35 36 30 22 17 14 8 10 11 13 13 15 19 23 33
17 13 4 4 7 11 12 19 39 30 13 6 7 8 9 9 10 8 7 6 8 7 3 29 21 8 7 6 4 4 4 5 6 6 6 15 49 49 45 41 34 30 30 22 13 4 6 11 15 16 18 23 27 35
14 18 10 7 10 12 16 23 29 18 7 1 6 7 12 6 9 10 14 13 8 14 10 16 7 8 6 4 5 3 4 7 7 4 5 47 49 51 44 37 35 30 25 27 15 4 6 13 15 20 22 22 36 31
10 15 10 7 10 13 15 20 22 10 2 4 9 6 11 10 8 16 13 14 10 12 8 7 2 1 4 3 5 8 6 6 4 7 39 51 50 46 39 41 32 32 32 21 8 3 4 13 18 24 25 33 33 21
17 13 9 9 10 17 18 12 4 5 5 6 8 10 4 7 10 9 10 13 7 5 5 6 1 5 5 4 7 6 5 5 26 26 38 49 48 45 41 35 33 39 26 13 3 6 6 14 26 25 31 35 29 32
11 9 13 21 19 20 7 3 3 7 9 15 10 6 2 10 18 17 14 8 6 5 7 1 8 5 5 6 2 7 15 10 20 26 28 35 45 41 39 37 40 29 24 15 4 5 9 14 26 27 36 31 39 35
9 9 23 20 18 14 3 6 6 7 13 5 17 10 9 19 17 23 20 13 5 9 7 3 7 5 8 4 10 17 22 9 25 29 31 36 40 36 35 40 40 33 24 9 0 6 6 11 23 31 37 37 40 32
8 10 23 20 11 0 5 6 5 8 6 7 2 18 14 15 23 30 22 15 13 10 5 6 9 14 13 10 16 11 9 12 33 39 35 34 41 32 39 41 37 26 12 4 5 6 14 10 26 34 44 43 34 35
14 15 20 14 2 6 5 3 7 6 7 7 4 10 6 8 19 23 27 24 15 9 10 18 25 24 15 17 19 15 19 39 34 36 39 36 32 45 28 31 27 19 18 16 9 4 11 15 16 35 44 49 39 24
11 20 17 2 3 4 6 5 5 6 7 9 8 9 9 13 16 21 28 29 28 22 20 17 9 10 10 14 11 20 29 38 30 35 34 39 47 36 42 38 34 29 28 18 13 7 6 13 8 32 37 45 41 30
22 13 2 3 3 3 9 7 8 7 6 5 10 6 8 5 5 1 7 16 29 30 22 19 10 3 2 7 12 32 27 34 41 35 32 26 31 32 29 25 30 32 28 30 21 6 5 12 11 28 36 48 40 25
12 1 3 4 8 7 9 8 9 8 6 9 5 3 5 3 3 3 4 9 6 10 20 18 22 14 13 10 23 14 23 22 28 31 28 23 19 17 21 15 25 24 35 37 24 8 4 10 9 17 39 52 42 24
3 5 6 8 9 8 8 9 10 9 5 5 5 2 6 5 3 5 5 4 13 11 5 18 29 20 19 19 18 12 11 12 12 25 19 7 11 16 11 18 27 20 21 27 25 13 5 6 6 7 40 51 44 29
1 10 8 9 9 8 5 1 4 3 3 6 6 7 8 4 2 3 4 11 8 7 8 1 1 8 7 3 8 4 8 8 10 19 14 27 26 14 16 16 16 36 30 25 24 18 12 6 4 2 26 53 55 46
5 7 14 16 9 2 5 3 7 5 7 2 4 7 3 2 3 5 12 16 20 20 14 18 10 7 9 14 10 4 16 16 13 20 17 14 16 16 16 20 24 17 31 28 24 20 15 10 4 3 6 47 60 54
13 7 2 2 7 4 7 8 5 1 4 4 1 4 7 6 3 10 12 11 8 11 16 17 12 14 15 19 24 28 21 23 32 42 46 35 31 24 18 11 9 22 21 37 28 26 22 15 8 2 3 24 57 60
12 9 11 12 15 10 4 6 11 7 4 3 4 1 5 4 6 12 11 13 17 3 4 10 11 20 23 19 21 24 27 31 29 27 23 28 34 39 28 24 13 3 15 32 31 22 27 21 14 6 4 7 50 60
18 14 12 8 13 7 7 7 6 2 5 10 11 17 20 19 14 18 23 15 13 12 14 19 25 30 30 26 26 26 26 29 36 36 37 32 26 22 26 24 27 17 15 27 37 34 37 30 23 14 8 7 43 62
13 4 9 14 8 4 4 5 19 20 14 10 17 22 22 13 9 15 18 16 14 15 10 11 13 15 19 23 29 32 36 30 27 38 43 41 41 38 34 41 32 33 26 39 42 42 47 42 34 23 15 15 27 59
12 8 5 7 10 4 15 9 5 4 5 4 4 7 5 5 7 6 18 18 11 15 15 17 23 27 27 32 36 35 37 36 40 38 39 44 48 56 40 36 36 30 33 38 53 51 49 45 41 36 26 23 22 50
9 11 11 7 7 6 3 5 5 6 10 7 6 18 16 11 7 9 8 19 20 15 25 35 40 37 35 34 37 41 33 33 36 46 58 53 46 50 53 48 33 24 31 46 49 41 42 43 40 37 31 32 24 60
Wind_Direction_500mb
270 275 278 279 281 282 282 280 278 275 270 257 242 231 226 223 226 219 176 222 288 284 299 17 6 349 335 12 13 340 1 339 316 313 282 271 9 349 350 68 147 66 307 252 354 61 270 359 39 24 355 42 50 56
270 276 276 279 282 282 279 277 274 269 263 247 229 219 213 211 212 202 159 323 303 261 252 310 289 275 272 293 316 310 317 314 325 16 339 10 309 359 236 331 350 37 99 184 131 196 194 183 113 80 69 60 52 55
275 286 289 295 290 283 281 278 271 262 253 230 214 207 205 200 199 191 180 128 307 281 300 284 267 229 238 276 247 224 100 359 2 355 309 264 25 29 358 307 20 59 34 70 102 104 129 102 81 70 62 60 53 41
277 294 306 310 309 307 298 286 271 250 229 210 202 198 196 192 194 189 180 140 278 311 281 149 303 225 256 240 263 276 251 276 300 299 292 276 310 317 302 222 254 183 138 105 104 106 90 77 78 73 51 35 28 7
286 294 300 301 298 301 300 304 277 225 206 199 194 191 184 189 193 192 196 151 13 269 320 314 307 278 218 258 263 268 235 252 288 303 247 256 292 30 291 306 53 71 122 105 161 80 106 100 84 78 71 56 20 25
305 312 306 302 290 288 298 300 280 210 189 184 184 177 173 177 183 178 178 221 221 226 304 283 331 249 241 242 253 239 239 252 242 295 298 262 118 162 21 297 124 107 96 95 113 109 98 109 96 90 56 34 35 23
292 317 319 307 301 296 265 256 225 170 157 165 167 164 173 172 175 167 191 163 197 229 248 280 276 239 233 205 241 232 230 241 247 257 258 271 145 135 204 212 125 115 108 105 105 114 95 75 107 79 43 51 34 26
291 323 337 324 305 305 249 217 189 168 163 160 165 169 180 177 189 185 115 144 167 159 204 276 268 187 206 199 222 212 201 213 255 244 275 250 142 194 281 124 122 129 121 108 93 79 101 132 129 81 52 32 53 44
272 312 346 357 343 21 77 151 166 162 157 156 156 160 164 186 152 197 172 153 294 139 236 295 301 314 183 229 188 212 200 207 258 219 236 277 213 195 221 151 150 154 152 135 127 122 100 102 106 97 34 66 56 61
252 290 336 357 37 64 125 136 140 155 158 149 142 127 120 149 138 120 97 176 221 205 246 249 250 251 253 175 201 146 227 194 237 238 237 195 240 144 126 138 149 145 131 141 130 99 107 97 108 32 57 81 80 116
220 261 319 3 70 120 135 153 151 148 154 150 108 83 138 130 117 122 143 202 185 232 221 239 236 261 288 159 210 154 231 232 234 251 152 242 200 159 142 146 134 126 111 101 113 122 133 156 115 83 127 121 121 134
201 222 302 33 118 96 130 159 156 160 163 173 138 129 125 112 120 170 182 161 215 250 203 211 207 204 228 115 137 216 321 227 248 196 202 266 73 140 130 133 126 114 114 113 123 115 75 72 119 147 141 127 137 136
187 190 169 62 111 115 108 136 164 149 130 124 117 129 140 139 152 200 185 182 207 212 245 171 57 98 100 60 322 190 226 239 80 219 213 120 133 131 131 130 129 127 120 130 131 83 50 105 124 131 132 135 148 140
189 193 170 94 107 121 144 142 150 137 121 128 128 139 203 176 224 216 217 184 205 322 134 116 126 179 119 169 301 267 266 324 254 237 201 154 148 147 152 148 141 143 137 136 151 110 33 115 131 135 149 143 144 144
185 187 164 120 128 126 143 169 162 120 89 155 215 206 207 220 134 147 115 105 55 34 54 112 137 189 165 138 216 230 249 243 248 242 108 149 152 152 152 152 146 142 137 155 152 106 29 133 137 145 142 138 143 141
140 161 162 138 137 140 138 156 140 79 318 246 236 224 187 177 168 168 132 106 32 37 60 79 134 164 216 246 227 219 232 234 16 81 141 152 151 154 153 157 154 146 145 141 125 338 39 134 141 150 144 144 136 123
123 116 121 142 139 149 149 112 124 240 237 232 239 217 185 183 166 102 142 120 84 53 52 30 283 219 280 217 215 237 242 74 123 136 150 158 160 163 156 157 145 144 143 131 69 2 133 137 150 154 154 150 136 138
91 118 135 145 131 136 126 173 244 224 235 240 237 175 159 91 144 132 129 98 102 123 125 91 317 237 224 245 205 345 35 99 131 159 158 163 159 158 159 153 142 144 136 125 88 34 83 131 159 162 166 156 144 148
127 138 150 160 145 125 187 229 238 279 237 244 217 177 174 150 157 160 155 165 115 169 151 264 248 247 237 26 357 349 21 132 137 136 142 148 155 152 165 159 151 141 130 122 303 41 65 166 163 169 167 157 152 147
166 155 161 162 158 14 249 179 223 273 319 298 199 198 210 204 167 157 154 151 124 114 147 230 245 290 329 309 311 282 258 196 156 140 144 152 163 164 141 149 146 140 136 132 151 81 48 94 163 170 169 168 163 165
141 154 171 168 310 282 286 258 239 290 295 278 284 278 231 215 193 165 180 190 185 192 218 234 261 292 303 295 283 259 253 197 159 145 147 138 153 157 169 166 172 171 171 159 177 119 54 44 163 175 174 179 175 165
128 144 151 227 299 268 271 238 259 294 283 261 266 234 236 217 232 205 205 193 222 233 225 245 278 278 315 306 197 165 172 156 158 156 157 159 161 162 173 183 175 182 188 180 188 174 68 45 106 173 178 182 176 175
118 112 140 251 287 312 271 257 237 225 247 229 232 216 229 217 93 310 264 233 235 242 220 215 260 307 320 29 35 155 137 143 149 145 173 168 185 178 190 203 196 184 175 181 179 170 111 50 54 173 180 180 175 172
109 216 263 240 217 253 237 220 226 232 248 256 251 274 47 77 283 229 253 258 215 208 204 205 232 198 253 199 178 191 138 163 165 151 166 173 159 168 186 225 210 194 197 174 174 172 156 70 48 168 181 183 181 177
232 228 232 243 249 238 229 203 209 218 241 354 327 160 142 213 242 225 222 271 237 202 90 214 213 213 228 219 205 196 149 155 148 181 199 205 196 216 214 147 183 171 185 172 165 178 182 115 69 152 187 185 185 178
267 216 206 222 239 216 251 214 191 275 251 247 175 171 165 179 276 294 44 17 98 149 202 67 139 171 144 97 37 48 126 121 151 149 138 207 242 241 219 222 201 178 195 201 198 192 199 184 115 86 193 188 190 183
247 249 202 223 252 292 309 312 254 213 253 279 147 163 141 37 249 81 102 97 100 104 126 189 213 210 215 220 222 274 236 222 223 209 224 208 179 179 207 232 238 230 207 210 199 196 208 207 182 152 181 191 191 185
266 291 261 276 285 241 232 280 259 213 77 18 95 191 170 195 193 167 163 178 217 266 263 240 235 246 247 251 249 243 262 254 253 245 244 235 220 213 194 193 208 226 221 210 212 207 210 223 220 233 174 195 189 194
264 280 235 238 235 252 278 339 14 73 62 20 19 325 225 244 200 178 205 273 305 292 204 192 216 240 254 267 270 247 232 241 256 252 245 240 240 231 215 207 185 113 218 200 193 206 205 223 221 238 191 199 194 194
242 238 246 221 244 315 53 14 49 344 271 253 242 248 262 258 265 260 262 248 208 223 257 257 250 254 250 239 238 233 239 247 243 239 234 231 223 224 214 223 216 192 220 205 203 197 193 208 213 217 224 241 198 196
308 278 271 270 286 47 136 242 287 296 274 243 228 239 245 265 265 218 211 216 233 296 301 288 260 254 249 245 246 245 240 234 247 237 233 233 227 226 226 207 206 213 225 218 204 197 195 204 217 222 227 239 204 200
262 268 7 334 340 300 302 290 295 246 228 217 245 217 221 227 260 222 204 211 238 292 303 293 282 272 265 256 253 246 246 243 230 228 222 226 232 227 232 219 216 217 236 220 202 199 201 210 218 223 228 234 232 197
346 337 348 353 331 331 258 287 265 251 207 210 248 240 230 217 233 210 234 242 254 278 298 305 298 285 274 253 246 239 248 246 243 239 231 234 229 222 226 217 203 192 198 190 191 194 202 205 220 223 222 220 215 192
Wind_Speed_850mb
44 45 44 47 48 45 43 41 39 37 33 30 30 31 30 25 24 17 9 6 10 9 22 15 14 14 16 17 5 15 10 10 7 3 5 6 3 6 7 4 10 3 6 2 5 6 7 11 19 9 2 22 32 34
36 36 37 42 44 39 38 39 38 36 32 29 30 31 30 27 25 18 7 4 13 15 21 22 13 14 9 7 8 8 10 6 7 4 6 7 5 7 3 3 11 7 3 3 7 6 19 27 26 34 29 36 36 33
21 23 28 32 33 27 32 35 37 34 30 30 32 33 31 29 26 23 16 3 10 20 28 21 13 19 13 7 14 6 4 8 4 7 7 3 3 3 4 4 7 5 8 5 8 6 12 29 34 32 32 29 26 24
15 20 23 24 23 23 23 29 30 27 26 31 35 35 32 31 27 27 19 8 3 10 8 2 6 9 10 11 10 17 25 12 14 14 7 3 2 3 3 5 1 10 6 8 14 22 36 30 27 21 19 14 14 22
15 18 19 18 17 17 17 21 16 20 26 33 36 37 34 27 24 25 22 12 2 4 10 20 19 16 21 6 7 11 11 15 13 10 6 6 2 8 11 5 1 7 2 6 6 11 27 26 23 17 14 17 21 18
11 15 17 16 16 16 13 12 8 14 22 28 33 38 32 25 24 21 8 20 16 5 7 6 9 16 25 19 13 14 13 14 13 8 8 5 6 3 2 4 18 28 22 18 13 17 25 24 17 7 11 17 15 14
11 17 18 15 12 14 10 8 6 16 20 24 31 35 31 31 28 17 6 11 22 15 5 9 11 10 22 22 11 18 18 18 15 10 14 18 8 6 1 3 32 29 23 22 17 15 25 16 18 9 13 17 8 11
8 14 19 13 11 10 4 8 12 23 27 30 33 31 30 26 27 16 9 15 15 10 5 6 8 11 19 14 16 21 16 12 10 16 18 6 12 5 3 32 32 28 23 19 17 14 17 14 10 11 8 6 9 9
7 9 16 16 7 6 6 12 21 29 31 34 34 26 28 18 9 17 18 9 1 3 2 6 5 3 10 14 14 12 10 5 9 9 17 11 4 6 10 42 33 29 20 24 15 11 20 11 14 10 9 8 6 6
7 8 11 17 6 6 12 30 26 35 33 34 46 15 8 26 25 23 8 6 6 3 6 10 11 4 10 19 11 10 5 5 4 9 17 6 7 24 25 27 28 26 22 19 24 22 17 11 4 4 11 4 5 9
8 6 5 11 6 6 14 38 38 39 38 33 8 8 37 36 13 7 6 6 8 7 13 15 24 12 7 11 7 4 5 3 4 8 9 4 5 20 38 35 33 29 26 29 26 17 10 8 4 5 7 9 12 17
13 5 1 6 6 7 12 32 44 45 28 19 12 30 21 8 5 6 7 10 8 7 15 14 24 32 7 2 6 3 3 4 7 4 0 3 2 42 46 43 34 31 29 27 14 8 10 10 10 11 12 13 19 21
15 9 4 5 6 7 11 14 20 18 39 35 11 9 7 5 4 9 13 7 6 11 11 10 18 7 4 6 4 4 5 8 2 4 6 5 31 48 43 35 36 30 22 17 14 8 10 11 13 13 15 19 23 33
17 13 4 4 7 11 12 19 39 30 13 6 7 8 9 9 10 8 7 6 8 7 3 29 21 8 7 6 4 4 4 5 6 6 6 15 49 49 45 41 34 30 30 22 13 4 6 11 15 16 18 23 27 35
14 18 10 7 10 12 16 23 29 18 7 1 6 7 12 6 9 10 14 13 8 14 10 16 7 8 6 4 5 3 4 7 7 4 5 47 49 51 44 37 35 30 25 27 15 4 6 13 15 20 22 22 36 31
10 15 10 7 10 13 15 20 22 10 2 4 9 6 11 10 8 16 13 14 10 12 8 7 2 1 4 3 5 8 6 6 4 7 39 51 50 46 39 41 32 32 32 21 8 3 4 13 18 24 25 33 33 21
17 13 9 9 10 17 18 12 4 5 5 6 8 10 4 7 10 9 10 13 7 5 5 6 1 5 5 4 7 6 5 5 26 26 38 49 48 45 41 35 33 39 26 13 3 6 6 14 26 25 31 35 29 32
11 9 13 21 19 20 7 3 3 7 9 15 10 6 2 10 18 17 14 8 6 5 7 1 8 5 5 6 2 7 15 10 20 26 28 35 45 41 39 37 40 29 24 15 4 5 9 14 26 27 36 31 39 35
9 9 23 20 18 14 3 6 6 7 13 5 17 10 9 19 17 23 20 13 5 9 7 3 7 5 8 4 10 17 22 9 25 29 31 36 40 36 35 40 40 33 24 9 0 6 6 11 23 31 37 37 40 32
8 10 23 20 11 0 5 6 5 8 6 7 2 18 14 15 23 30 22 15 13 10 5 6 9 14 13 10 16 11 9 12 33 39 35 34 41 32 39 41 37 26 12 4 5 6 14 10 26 34 44 43 34 35
14 15 20 14 2 6 5 3 7 6 7 7 4 10 6 8 19 23 27 24 15 9 10 18 25 24 15 17 19 15 19 39 34 36 39 36 32 45 28 31 27 19 18 16 9 4 11 15 16 35 44 49 39 24
11 20 17 2 3 4 6 5 5 6 7 9 8 9 9 13 16 21 28 29 28 22 20 17 9 10 10 14 11 20 29 38 30 35 34 39 47 36 42 38 34 29 28 18 13 7 6 13 8 32 37 45 41 30
22 13 2 3 3 3 9 7 8 7 6 5 10 6 8 5 5 1 7 16 29 30 22 19 10 3 2 7 12 32 27 34 41 35 32 26 31 32 29 25 30 32 28 30 21 6 5 12 11 28 36 48 40 25
12 1 3 4 8 7 9 8 9 8 6 9 5 3 5 3 3 3 4 9 6 10 20 18 22 14 13 10 23 14 23 22 28 31 28 23 19 17 21 15 25 24 35 37 24 8 4 10 9 17 39 52 42 24
3 5 6 8 9 8 8 9 10 9 5 5 5 2 6 5 3 5 5 4 13 11 5 18 29 20 19 19 18 12 11 12 12 25 19 7 11 16 11 18 27 20 21 27 25 13 5 6 6 7 40 51 44 29
1 10 8 9 9 8 5 1 4 3 3 6 6 7 8 4 2 3 4 11 8 7 8 1 1 8 7 3 8 4 8 8 10 19 14 27 26 14 16 16 16 36 30 25 24 18 12 6 4 2 26 53 55 46
5 7 14 16 9 2 5 3 7 5 7 2 4 7 3 2 3 5 12 16 20 20 14 18 10 7 9 14 10 4 16 16 13 20 17 14 16 16 16 20 24 17 31 28 24 20 15 10 4 3 6 47 60 54
13 7 2 2 7 4 7 8 5 1 4 4 1 4 7 6 3 10 12 11 8 11 16 17 12 14 15 19 24 28 21 23 32 42 46 35 31 24 18 11 9 22 21 37 28 26 22 15 8 2 3 24 57 60
12 9 11 12 15 10 4 6 11 7 4 3 4 1 5 4 6 12 11 13 17 3 4 10 11 20 23 19 21 24 27 31 29 27 23 28 34 39 28 24 13 3 15 32 31 22 27 21 14 6 4 7 50 60
18 14 12 8 13 7 7 7 6 2 5 10 11 17 20 19 14 18 23 15 13 12 14 19 25 30 30 26 26 26 26 29 36 36 37 32 26 22 26 24 27 17 15 27 37 34 37 30 23 14 8 7 43 62
13 4 9 14 8 4 4 5 19 20 14 10 17 22 22 13 9 15 18 16 14 15 10 11 13 15 19 23 29 32 36 30 27 38 43 41 41 38 34 41 32 33 26 39 42 42 47 42 34 23 15 15 27 59
12 8 5 7 10 4 15 9 5 4 5 4 4 7 5 5 7 6 18 18 11 15 15 17 23 27 27 32 36 35 37 36 40 38 39 44 48 56 40 36 36 30 33 38 53 51 49 45 41 36 26 23 22 50
9 11 11 7 7 6 3 5 5 6 10 7 6 18 16 11 7 9 8 19 20 15 25 35 40 37 35 34 37 41 33 33 36 46 58 53 46 50 53 48 33 24 31 46 49 41 42 43 40 37 31 32 24 60
Wind_Direction_850mb
270 275 278 279 281 282 282 280 278 275 270 257 242 231 226 223 226 219 176 222 288 284 299 17 6 349 335 12 13 340 1 339 316 313 282 271 9 349 350 68 147 66 307 252 354 61 270 359 39 24 355 42 50 56
270 276 276 279 282 282 279 277 274 269 263 247 229 219 213 211 212 202 159 323 303 261 252 310 289 275 272 293 316 310 317 314 325 16 339 10 309 359 236 331 350 37 99 184 131 196 194 183 113 80 69 60 52 55
275 286 289 295 290 283 281 278 271 262 253 230 214 207 205 200 199 191 180 128 307 281 300 284 267 229 238 276 247 224 100 359 2 355 309 264 25 29 358 307 20 59 34 70 102 104 129 102 81 70 62 60 53 41
277 294 306 310 309 307 298 286 271 250 229 210 202 198 196 192 194 189 180 140 278 311 281 149 303 225 256 240 263 276 251 276 300 299 292 276 310 317 302 222 254 183 138 105 104 106 90 77 78 73 51 35 28 7
286 294 300 301 298 301 300 304 277 225 206 199 194 191 184 189 193 192 196 151 13 269 320 314 307 278 218 258 263 268 235 252 288 303 247 256 292 30 291 306 53 71 122 105 161 80 106 100 84 78 71 56 20 25
305 312 306 302 290 288 298 300 280 210 189 184 184 177 173 177 183 178 178 221 221 226 304 283 331 249 241 242 253 239 239 252 242 295 298 262 118 162 21 297 124 107 96 95 113 109 98 109 96 90 56 34 35 23
292 317 319 307 301 296 265 256 225 170 157 165 167 164 173 172 175 167 191 163 197 229 248 280 276 239 233 205 241 232 230 241 247 257 258 271 145 135 204 212 125 115 108 105 105 114 95 75 107 79 43 51 34 26
291 323 337 324 305 305 249 217 189 168 163 160 165 169 180 177 189 185 115 144 167 159 204 276 268 187 206 199 222 212 201 213 255 244 275 250 142 194 281 124 122 129 121 108 93 79 101 132 129 81 52 32 53 44
272 312 346 357 343 21 77 151 166 162 157 156 156 160 164 186 152 197 172 153 294 139 236 295 301 314 183 229 188 212 200 207 258 219 236 277 213 195 221 151 150 154 152 135 127 122 100 102 106 97 34 66 56 61
252 290 336 357 37 64 125 136 140 155 158 149 142 127 120 149 138 120 97 176 221 205 246 249 250 251 253 175 201 146 227 194 237 238 237 195 240 144 126 138 149 145 131 141 130 99 107 97 108 32 57 81 80 116
220 261 319 3 70 120 135 153 151 148 154 150 108 83 138 130 117 122 143 202 185 232 221 239 236 261 288 159 210 154 231 232 234 251 152 242 200 159 142 146 134 126 111 101 113 122 133 156 115 83 127 121 121 134
201 222 302 33 118 96 130 159 156 160 163 173 138 129 125 112 120 170 182 161 215 250 203 211 207 204 228 115 137 216 321 227 248 196 202 266 73 140 130 133 126 114 114 113 123 115 75 72 119 147 141 127 137 136
187 190 169 62 111 115 108 136 164 149 130 124 117 129 140 139 152 200 185 182 207 212 245 171 57 98 100 60 322 190 226 239 80 219 213 120 133 131 131 130 129 127 120 130 131 83 50 105 124 131 132 135 148 140
189 193 170 94 107 121 144 142 150 137 121 128 128 139 203 176 224 216 217 184 205 322 134 116 126 179 119 169 301 267 266 324 254 237 201 154 148 147 152 148 141 143 137 136 151 110 33 115 131 135 149 143 144 144
185 187 164 120 128 126 143 169 162 120 89 155 215 206 207 220 134 147 115 105 55 34 54 112 137 189 165 138 216 230 249 243 248 242 108 149 152 152 152 152 146 142 137 155 152 106 29 133 137 145 142 138 143 141
140 161 162 138 137 140 138 156 140 79 318 246 236 224 187 177 168 168 132 106 32 37 60 79 134 164 216 246 227 219 232 234 16 81 141 152 151 154 153 157 154 146 145 141 125 338 39 134 141 150 144 144 136 123
123 116 121 142 139 149 149 112 124 240 237 232 239 217 185 183 166 102 142 120 84 53 52 30 283 219 280 217 215 237 242 74 123 136 150 158 160 163 156 157 145 144 143 131 69 2 133 137 150 154 154 150 136 138
91 118 135 145 131 136 126 173 244 224 235 240 237 175 159 91 144 132 129 98 102 123 125 91 317 237 224 245 205 345 35 99 131 159 158 163 159 158 159 153 142 144 136 125 88 34 83 131 159 162 166 156 144 148
127 138 150 160 145 125 187 229 238 279 237 244 217 177 174 150 157 160 155 165 115 169 151 264 248 247 237 26 357 349 21 132 137 136 142 148 155 152 165 159 151 141 130 122 303 41 65 166 163 169 167 157 152 147
166 155 161 162 158 14 249 179 223 273 319 298 199 198 210 204 167 157 154 151 124 114 147 230 245 290 329 309 311 282 258 196 156 140 144 152 163 164 141 149 146 140 136 132 151 81 48 94 163 170 169 168 163 165
141 154 171 168 310 282 286 258 239 290 295 278 284 278 231 215 193 165 180 190 185 192 218 234 261 292 303 295 283 259 253 197 159 145 147 138 153 157 169 166 172 171 171 159 177 119 54 44 163 175 174 179 175 165
128 144 151 227 299 268 271 238 259 294 283 261 266 234 236 217 232 205 205 193 222 233 225 245 278 278 315 306 197 165 172 156 158 156 157 159 161 162 173 183 175 182 188 180 188 174 68 45 106 173 178 182 176 175
118 112 140 251 287 312 271 257 237 225 247 229 232 216 229 217 93 310 264 233 235 242 220 215 260 307 320 29 35 155 137 143 149 145 173 168 185 178 190 203 196 184 175 181 179 170 111 50 54 173 180 180 175 172
109 216 263 240 217 253 237 220 226 232 248 256 251 274 47 77 283 229 253 258 215 208 204 205 232 198 253 199 178 191 138 163 165 151 166 173 159 168 186 225 210 194 197 174 174 172 156 70 48 168 181 183 181 177
232 228 232 243 249 238 229 203 209 218 241 354 327 160 142 213 242 225 222 271 237 202 90 214 213 213 228 219 205 196 149 155 148 181 199 205 196 216 214 147 183 171 185 172 165 178 182 115 69 152 187 185 185 178
267 216 206 222 239 216 251 214 191 275 251 247 175 171 165 179 276 294 44 17 98 149 202 67 139 171 144 97 37 48 126 121 151 149 138 207 242 241 219 222 201 178 195 201 198 192 199 184 115 86 193 188 190 183
247 249 202 223 252 292 309 312 254 213 253 279 147 163 141 37 249 81 102 97 100 104 126 189 213 210 215 220 222 274 236 222 223 209 224 208 179 179 207 232 238 230 207 210 199 196 208 207 182 152 181 191 191 185
266 291 261 276 285 241 232 280 259 213 77 18 95 191 170 195 193 167 163 178 217 266 263 240 235 246 247 251 249 243 262 254 253 245 244 235 220 213 194 193 208 226 221 210 212 207 210 223 220 233 174 195 189 194
264 280 235 238 235 252 278 339 14 73 62 20 19 325 225 244 200 178 205 273 305 292 204 192 216 240 254 267 270 247 232 241 256 252 245 240 240 231 215 207 185 113 218 200 193 206 205 223 221 238 191 199 194 194
242 238 246 221 244 315 53 14 49 344 271 253 242 248 262 258 265 260 262 248 208 223 257 257 250 254 250 239 238 233 239 247 243 239 234 231 223 224 214 223 216 192 220 205 203 197 193 208 213 217 224 241 198 196
308 278 271 270 286 47 136 242 287 296 274 243 228 239 245 265 265 218 211 216 233 296 301 288 260 254 249 245 246 245 240 234 247 237 233 233 227 226 226 207 206 213 225 218 204 197 195 204 217 222 227 239 204 200
262 268 7 334 340 300 302 290 295 246 228 217 245 217 221 227 260 222 204 211 238 292 303 293 282 272 265 256 253 246 246 243 230 228 222 226 232 227 232 219 216 217 236 220 202 199 201 210 218 223 228 234 232 197
346 337 348 353 331 331 258 287 265 251 207 210 248 240 230 217 233 210 234 242 254 278 298 305 298 285 274 253 246 239 248 246 243 239 231 234 229 222 226 217 203 192 198 190 191 194 202 205 220 223 222 220 215 192